User: anonymous   Login
Location: Wildcat Hills Observatory
(41.6350°N, 103.6812°W)
Time: 01:00:22
(UTC-07:00)
Language:

Cosmos 1634 Rocket - Orbit

View from above orbital plane
View from above orbital plane
View from above satellite
View from above satellite

Ground track
Ground track

The orbit data is extracted from the following two-line orbital elements,

1 15598U 85022B   17019.19023306  .00000134  00000-0  12105-3 0  9997
2 15598  82.9350 217.8440 0022444 163.0813 333.8547 13.76559119599969
Epoch (UTC): 19 January 2017 04:33:56
Eccentricity: 0.0022444
inclination: 82.9350°
perigee height: 959 km
apogee height: 992 km
right ascension of ascending node: 217.8440°
argument of perigee: 163.0813°
revolutions per day: 13.76559119
mean anomaly at epoch: 333.8547°
orbit number at epoch: 59996

The dashed part of the orbit path shows where the satellite is in the earth's shadow,  

DLR